Simultaneous Nadir Overpasses (SNOs) Predictions

Prediction of SNOs between GOES-16 and METOP-C Satellite Orbit:

Table of predicted SNOs for the next 14.0 days since TLE Epoch: 4/15/2023
Index Date Time (GOES-16) GOES-16 Lat,Lon METOP-C Lat,Lon Distance(km) Time Diff (sec)
1 04/16/2023 02:39:50 -0.05, -75.21 -0.41, -76.95 197.38 80
2 04/17/2023 02:16:31 -0.05, -75.22 0.68, -71.95 372.53 80
3 04/18/2023 14:38:04 0.05, -75.25 0.32, -76.53 144.51 80
4 04/19/2023 14:14:45 0.05, -75.27 -0.78, -71.53 425.95 80
5 04/21/2023 02:36:25 -0.05, -75.28 -0.22, -76.13 96.69 80
6 04/22/2023 02:13:06 -0.05, -75.29 0.88, -71.14 473.95 80
7 04/23/2023 14:34:38 0.04, -75.33 0.15, -75.70 42.29 80
8 04/26/2023 02:30:19 -0.04, -75.37 -0.04, -75.31 7.03 80
9 04/28/2023 14:28:33 0.03, -75.44 -0.12, -74.89 63.11 80
